Location: LDNL
(36.4545°S, 141.6685°E)
Time: 12:07:07
(UTC+10:00)

Explorer 7 - Pass Details

Date: 11 August 2022
Orbit: 482 x 668 km, 50.3° (Epoch: 26 September)

Event Time Altitude Azimuth Distance (km) Brightness Sun altitude
Rises 01:56:03 0° 232° (SW) 2,821 - -62.8°
Reaches altitude 10° 01:58:25 10° 231° (SW) 1,883 - -62.5°
Maximum altitude 02:02:42 89° 324° (NW) 551 - -61.9°
Drops below altitude 10° 02:06:42 10° 49° (NE) 1,754 - -61.3°
Sets 02:08:49 0° 49° (NE) 2,610 - -61.0°
